GAOFEN 2 1 40118U 14049A 21111.48197833 .00000131 00000-0 23648-4 0 9993 2 40118 97.8060 187.2403 0006266 244.1927 115.8642 14.80676226360659 BRITE-PL2 (HEWELIUSZ) 1 40119U 14049B 21111.54515685 .00000228 00000-0 33315-4 0 9999 2 40119 97.8850 206.6357 0017482 177.4488 182.6819 14.84632487361400 CZ-4C DEB 1 44599U 14049D 21111.00546541 .00003992 00000-0 36627-3 0 9990 2 44599 97.8174 203.2903 0101072 153.3272 207.3196 14.91591362360796